Location: Trout Lake
(45.9980°N, 121.5270°W)
Time: 08:55:48
(UTC-07:00)

Daily predictions for brighter satellites

Satellite Brightness Start Highest point End
(mag) Time Altitude Azimuth Time Altitude Azimuth Time Altitude Azimuth
Timation 2 Rocket 4.4 20:19:13 10° NNW 20:25:23 51° NE 20:31:47 10° SE
PSLV R/B 4.4 20:21:30 10° S 20:25:27 50° W 20:29:28 10° NNW
Cosmos 2237 Rocket 2.7 20:24:29 10° S 20:29:39 37° ESE 20:34:50 10° NE
Cosmos 2084 Rocket 3.8 20:27:03 10° S 20:30:48 38° ESE 20:34:37 10° NE
Cosmos 1980 4.1 20:25:58 10° S 20:31:12 41° ESE 20:36:27 10° NE
Cosmos 2219 Rocket 4.2 20:29:24 10° WSW 20:34:26 34° NW 20:39:30 10° NNE
Lacrosse 5 rocket 3.4 20:35:05 10° WNW 20:37:21 18° NNW 20:39:38 10° NNE
Cosmos 2341 Rocket 4.1 20:32:55 10° SSE 20:38:58 56° E 20:45:08 10° NNE
SL-8 Rocket 4.1 20:33:18 10° S 20:39:24 58° E 20:45:35 10° NNE
Cosmos 1048 Rocket 4.0 20:36:53 10° NNW 20:42:00 64° ENE 20:47:08 10° SSE
SJ-6B 3.9 20:39:23 10° S 20:42:53 43° W 20:46:22 10° NNW
BREEZE-M DEB (TANK) 2.7 20:41:26 10° WNW 20:43:49 46° N 20:48:04 10° E
Cosmos 2322 4.2 20:39:17 10° SW 20:44:57 68° WNW 20:50:41 10° NNE
NOSS 3-4 (A) 3.1 20:40:18 10° SSW 20:45:27 62° ESE 20:51:04 10° NE
NOSS 3-4 (C) 3.1 20:40:48 10° SSW 20:45:58 61° ESE 20:51:37 10° NE
CSL-04 Rocket 3.7 20:40:58 10° SSE 20:46:31 84° ENE 20:52:06 10° NNW
Cosmos 1400 Rocket 3.8 20:43:56 10° SE 20:46:46 22° E 20:49:38 10° NE
Okean O Rocket 3.1 20:45:13 11° ESE 20:48:10 20° ENE 20:51:17 10° NNE
Cosmos 1346 Rocket 4.4 20:51:52 10° NNE 20:54:08 16° ENE 20:55:36 13° E
Cosmos 2366 rocket 3.9 20:48:24 10° S 20:54:29 68° E 21:00:35 10° NNE
SPOT 5 3.0 20:53:33 10° S 20:58:07 69° WSW 21:02:32 10° NNW
Cosmos 2369 Rocket 3.9 20:54:53 10° N 20:58:45 19° NE 21:02:35 10° E
Cosmos 2242 Rocket 3.9 20:55:28 10° N 20:59:48 48° ENE 21:03:46 12° SSE
Resurs 01 Rocket 4.3 20:59:14 10° SW 21:02:30 20° W 21:05:47 10° NW
Cosmos 1378 Rocket 4.1 20:59:57 10° N 21:04:06 40° ENE 21:07:17 16° SE
Cosmos 1943 Rocket 2.6 20:58:54 10° NNW 21:04:31 66° WSW 21:10:05 10° SSE
Cosmos 1125 Rocket 3.7 21:01:31 10° S 21:06:31 50° ESE 21:11:35 10° NNE
USA 59 Rocket 0.2 21:04:35 10° NNW 21:07:49 43° NE 21:10:28 19° ESE
CZ-4B DEB 4.2 21:07:19 10° SSE 21:12:47 88° WSW 21:18:19 10° NNW
CZ-4B R/B 3.3 21:07:29 10° SSE 21:12:55 68° ENE 21:18:33 10° N
Cosmos 2278 Rocket 2.5 21:08:25 10° NNW 21:14:03 69° WSW 21:19:40 10° SSE
Meteor 2-14 Rocket 4.4 21:09:20 10° N 21:15:29 89° E 21:21:37 10° S
ASTEX 1 4.1 21:16:51 20° SE 21:19:34 34° ENE 21:24:00 10° N
Meteor 1-31 Rocket 3.6 21:16:34 10° S 21:19:57 43° W 21:23:20 10° NNW
CZ-4 R/B 1.9 21:16:56 10° S 21:20:36 52° W 21:24:15 10° NNW
NOSS 8 (A) 4.4 21:18:07 10° NNW 21:20:57 51° NE 21:22:08 30° ESE
COSMOS 2428 4.1 21:16:02 10° SW 21:21:27 42° NW 21:26:53 10° NNE
Cosmos 44 4.3 21:17:52 10° SSE 21:21:56 26° ESE 21:26:12 10° ENE
Cosmos 1733 Rocket 2.9 21:17:47 10° S 21:22:08 80° E 21:26:32 10° N
NOSS 0 Rocket 4.5 21:16:24 10° SW 21:22:35 64° WNW 21:28:48 10° NNE
Cosmos 614 Rocket 3.9 21:18:07 10° NNW 21:23:18 76° ENE 21:26:58 19° SSE
ERS-1 Rocket 3.0 21:21:51 10° SSE 21:26:46 83° WSW 21:31:48 10° NNW
Terra 1.8 21:25:44 14° SSE 21:29:48 87° WSW 21:34:31 10° NNW
Cosmos 2218 Rocket 4.2 21:24:35 10° SSW 21:30:41 72° W 21:36:52 10° N
Cosmos 1025 Rocket 3.4 21:26:51 10° N 21:30:55 44° ENE 21:32:39 29° SE
Cosmos 1821 Rocket 4.0 21:25:10 10° S 21:31:25 85° E 21:37:48 10° N
Meteor 2-21 Rocket 4.5 21:25:46 10° N 21:31:52 64° ENE 21:36:21 19° SSE
SL-8 R/B 4.1 21:29:15 10° SSW 21:33:35 37° SE 21:35:38 25° E
Ariane Rocket 4.3 21:33:44 20° E 21:35:31 25° ENE 21:39:34 10° N
Geosat 3.9 21:34:53 10° NNE 21:39:54 75° ESE 21:44:53 10° SSW
USA 234 3.3 21:34:04 10° NE 21:40:39 87° NW 21:47:13 10° WSW
SKYMED 3 4.4 21:38:52 10° N 21:42:45 77° WNW 21:46:37 10° SSW
NOSS 2-1 (D) 3.1 21:39:22 10° NW 21:42:46 79° NE 21:44:17 37° SE
SL-16 R/B 2.6 21:39:02 17° SSE 21:42:59 40° ESE 21:48:14 10° NE
Spot 2 Rocket 3.4 21:40:11 26° SSE 21:43:02 69° ENE 21:48:01 10° N
Cosmos 2221 Rocket 4.0 21:39:27 10° N 21:43:39 42° ENE 21:44:51 34° ESE
CZ-4B R/B 4.2 21:43:44 27° E 21:45:12 33° ENE 21:49:26 10° N
NOSS 2-1 (E) 3.2 21:42:31 10° NNW 21:45:53 64° NE 21:47:06 40° ESE
Cosmos 2150 Rocket 4.4 21:48:04 32° SE 21:49:35 39° ESE 21:54:23 10° NE
YAOGAN 11 3.9 21:45:48 10° NNE 21:50:03 68° ESE 21:52:29 25° S
NOSS 2-1 (C) 3.1 21:46:56 10° NW 21:50:20 81° NE 21:51:32 44° SE
Cosmos 1000 Rocket 4.4 21:44:38 10° N 21:50:48 73° E 21:54:27 26° SSE
ADEOS 4.0 21:48:52 15° S 21:53:07 60° WSW 21:58:17 10° NNW
Cosmos 405 Rocket 4.5 21:53:35 10° NNE 21:54:22 13° NE 21:54:22 13° NE
USA 238 4.5 21:48:25 10° NW 21:55:43 55° WSW 22:01:26 20° S
Meteor 2-8 Rocket 4.3 21:50:24 11° S 21:56:13 80° E 22:02:17 10° N
Cosmos 2285 Rocket 4.1 21:54:40 21° S 21:58:49 51° ESE 22:04:55 10° NNE
SL-08 R/B 3.6 21:54:03 10° N 21:58:56 71° WNW 22:03:48 10° SSW
RESURS DK-1 3.2 21:55:31 10° SW 21:59:20 49° WNW 22:03:12 10° NNE
BREEZE-M DEB (TANK) 3.4 21:57:15 10° WNW 21:59:44 48° N 22:03:04 18° ENE
USA 186 3.0 22:01:54 27° NNW 22:01:54 27° NNW 22:03:09 10° NNW
SPOT 3 Rocket 3.8 21:59:45 37° ESE 22:01:24 51° ENE 22:06:25 10° N
Dummy Sat-01 4.4 22:04:02 65° ESE 22:04:08 66° E 22:07:46 10° N
Okean-O 2.8 22:08:59 37° S 22:10:38 68° WSW 22:15:01 10° NNW
SL-08 R/B 4.4 22:06:48 10° N 22:13:01 77° E 22:15:42 36° SSE
Cosmos 2237 Rocket 3.6 22:08:22 10° WSW 22:13:39 39° NW 22:18:59 10° NNE
Lacrosse 5 rocket 3.7 22:13:48 10° NNW 22:15:02 12° N 22:16:17 10° NNE
Cosmos 1975 Rocket 4.0 22:13:53 10° N 22:17:39 32° ENE 22:17:39 32° ENE
Cosmos 1315 Rocket 4.5 22:23:08 21° NE 22:23:08 21° NE 22:24:41 10° NNE
Cosmos 2292 Rocket 4.0 22:17:32 10° NNW 22:22:03 53° W 22:23:04 41° SW
Okean O Rocket 2.4 22:22:27 32° SSW 22:24:02 46° W 22:28:13 10° NNW
Cosmos 1656 Rocket 3.9 22:21:30 10° NNW 22:26:51 59° WSW 22:28:43 39° S
Cosmos 1346 Rocket 3.7 22:26:04 10° NNW 22:29:24 36° W 22:29:52 35° WSW
CZ-2C R/B 4.1 22:32:30 25° N 22:32:30 25° N 22:33:54 10° N
Cosmos 2297 3.8 22:26:19 10° NNW 22:32:03 67° ENE 22:33:14 53° ESE
Cosmos 1908 Rocket 3.9 22:31:07 41° SW 22:32:24 62° W 22:36:42 10° N
Cosmos 921 Rocket 4.4 22:31:18 10° N 22:34:47 28° NE 22:34:47 28° NE
ATLAS 5 CENTAUR R/B 4.0 22:34:01 10° N 22:35:55 13° NNE 22:37:24 11° NE
CZ-4B R/B 3.3 22:38:52 51° WNW 22:38:52 51° WNW 22:41:42 10° NNW
NOSS 3-1 (C) 4.0 22:34:21 10° NW 22:41:21 73° NE 22:44:25 43° ESE
Cosmos 1782 Rocket 3.5 22:42:26 71° NNE 22:42:26 71° NNE 22:46:20 10° N
Cosmos 2369 Rocket 2.0 22:37:56 10° NNW 22:43:34 89° E 22:44:25 66° SSE
Cosmos 2298 Rocket 4.1 22:44:06 34° SW 22:46:26 74° WNW 22:51:46 10° NNE
USA 59 Rocket 1.9 22:53:32 10° WNW 22:56:00 19° WSW 22:56:00 19° WSW
Cosmos 1934 Rocket 4.4 22:53:26 27° SSW 22:56:53 60° WNW 23:03:02 10° N
SeaSat 1 3.6 22:57:42 29° ENE 22:58:03 30° NE 23:02:17 10° N
Cosmos 1943 3.4 22:58:55 55° ENE 22:58:55 55° ENE 23:03:47 10° NNE
Cosmos 1023 Rocket 4.3 22:55:19 10° NNW 23:00:18 77° NE 23:00:18 77° NE
COSMOS 2455 3.6 22:55:30 10° NNW 23:01:11 41° NE 23:02:16 37° ENE
Cosmos 44 4.1 22:57:46 10° SW 23:02:43 54° NW 23:07:57 10° NNE
Cosmos 2058 4.1 23:01:27 10° N 23:03:56 36° N 23:03:56 36° N
Cosmos 2263 4.0 23:00:50 10° NNW 23:06:30 80° WSW 23:06:48 77° SSW
Cosmos 1269 Rocket 4.0 23:07:23 10° NNW 23:12:26 80° N 23:12:26 80° N
Ariane Rocket 3.6 23:13:48 46° WSW 23:14:07 47° W 23:18:58 10° NNW
Cosmos 1447 Rocket 4.3 23:08:33 10° N 23:14:52 84° E 23:15:22 76° SSE
Cosmos 967 Rocket 4.5 23:11:29 10° NW 23:17:54 68° WSW 23:18:26 65° SSW
USA 234 4.4 23:17:12 10° NE 23:23:15 42° NNW 23:29:19 10° W
Helios 1B rocket 4.4 23:25:42 20° N 23:25:42 20° N 23:26:59 10° N
SL-16 R/B 3.6 23:21:55 10° WSW 23:27:07 36° NW 23:32:20 10° NNE
Cosmos 371 Rocket 4.2 23:31:57 10° NNW 23:35:36 45° NNE 23:35:36 45° NNE
NOSS 3-1 (A) 4.0 23:31:11 10° NW 23:38:18 76° NE 23:39:55 60° ESE
Cosmos 1140 Rocket 4.1 23:33:27 10° NNW 23:37:43 49° WNW 23:37:43 49° WNW
Cosmos 2251 Rocket 4.4 23:38:55 10° N 23:43:20 41° NE 23:43:20 41° NE
Cosmos 407 Rocket 3.9 23:39:47 10° NNW 23:43:52 57° NNW 23:43:52 57° NNW
Meteor 2-17 Rocket 4.4 23:41:47 10° NNW 23:47:50 74° W 23:47:50 74° W
SJ 16-02 3.0 23:47:44 10° NNW 23:50:05 30° N 23:50:05 30° N
Lacrosse 5 rocket 4.2 23:50:05 10° NNW 23:50:24 12° NNW 23:50:24 12° NNW
Cosmos 1656 4.4 23:47:31 10° NNW 23:52:13 43° NE 23:52:13 43° NE
